Time,TemperatureF,DewpointF,PressureIn,WindDirection,WindDirectionDegrees,WindSpeedMPH,WindSpeedGustMPH,Humidity,HourlyPrecipIn,Conditions,Clouds,dailyrainin,SoftwareType,DateUTC
2013-05-15 00:02:00,68.0,33.0,30.03,West,268,27.0,39.0,27,-99.99,,,-99.99,,2013-05-15 06:02:00,
2013-05-15 00:11:00,68.0,33.0,30.02,West,274,22.0,34.0,27,-99.99,,,-99.99,,2013-05-15 06:11:00,
2013-05-15 00:21:00,69.0,32.0,30.03,West,267,19.0,32.0,26,-99.99,,,-99.99,,2013-05-15 06:21:00,
2013-05-15 00:32:00,69.0,32.0,30.03,West,267,19.0,32.0,26,-99.99,,,-99.99,,2013-05-15 06:32:00,
2013-05-15 00:42:00,67.0,33.0,30.02,WSW,253,20.0,32.0,28,-99.99,,,-99.99,,2013-05-15 06:42:00,
2013-05-15 00:51:00,67.0,33.0,30.02,WSW,253,20.0,32.0,28,-99.99,,,-99.99,,2013-05-15 06:51:00,
2013-05-15 01:01:00,66.0,34.0,30.01,WSW,249,22.0,33.0,30,-99.99,,,-99.99,,2013-05-15 07:01:00,
2013-05-15 01:11:00,66.0,34.0,30.01,WSW,249,22.0,33.0,30,-99.99,,,-99.99,,2013-05-15 07:11:00,
2013-05-15 01:21:00,66.0,33.0,30.01,WSW,245,24.0,32.0,30,-99.99,,,-99.99,,2013-05-15 07:21:00,
2013-05-15 01:32:00,66.0,33.0,30.01,WSW,245,24.0,32.0,30,-99.99,,,-99.99,,2013-05-15 07:32:00,
2013-05-15 01:41:00,66.0,33.0,30.01,WSW,245,20.0,30.0,30,-99.99,,,-99.99,,2013-05-15 07:41:00,
2013-05-15 01:52:00,66.0,33.0,30.00,SW,235,22.0,31.0,29,-99.99,,,-99.99,,2013-05-15 07:52:00,
2013-05-15 02:02:00,66.0,33.0,29.99,WSW,242,23.0,34.0,29,-99.99,,,-99.99,,2013-05-15 08:02:00,
2013-05-15 02:12:00,66.0,33.0,29.99,WSW,242,23.0,34.0,29,-99.99,,,-99.99,,2013-05-15 08:12:00,
2013-05-15 02:21:00,66.0,32.0,29.99,WSW,241,22.0,31.0,29,-99.99,,,-99.99,,2013-05-15 08:21:00,
2013-05-15 02:32:00,66.0,32.0,29.99,WSW,241,22.0,31.0,29,-99.99,,,-99.99,,2013-05-15 08:32:00,
2013-05-15 02:42:00,66.0,32.0,29.99,WSW,237,22.0,30.0,28,-99.99,,,-99.99,,2013-05-15 08:42:00,
2013-05-15 02:53:00,66.0,32.0,29.99,WSW,238,20.0,30.0,28,-99.99,,,-99.99,,2013-05-15 08:53:00,
2013-05-15 03:01:00,66.0,32.0,29.99,WSW,238,20.0,30.0,28,-99.99,,,-99.99,,2013-05-15 09:01:00,
2013-05-15 03:11:00,66.0,32.0,29.99,WSW,241,18.0,27.0,28,-99.99,,,-99.99,,2013-05-15 09:11:00,
2013-05-15 03:21:00,66.0,32.0,30.00,WSW,246,15.0,26.0,28,-99.99,,,-99.99,,2013-05-15 09:21:00,
2013-05-15 03:33:00,66.0,32.0,30.00,WSW,246,15.0,26.0,28,-99.99,,,-99.99,,2013-05-15 09:33:00,
2013-05-15 03:42:00,67.0,31.0,29.99,WSW,244,19.0,28.0,26,-99.99,,,-99.99,,2013-05-15 09:42:00,
2013-05-15 03:53:00,67.0,31.0,29.99,WSW,244,19.0,28.0,26,-99.99,,,-99.99,,2013-05-15 09:53:00,
2013-05-15 04:12:00,66.0,32.0,29.99,WSW,243,19.0,27.0,28,-99.99,,,-99.99,,2013-05-15 10:12:00,
2013-05-15 04:22:00,66.0,32.0,29.99,WSW,243,19.0,27.0,28,-99.99,,,-99.99,,2013-05-15 10:22:00,
2013-05-15 04:42:00,66.0,31.0,30.00,West,267,12.0,19.0,27,-99.99,,,-99.99,,2013-05-15 10:42:00,
2013-05-15 04:52:00,66.0,31.0,30.00,West,266,11.0,20.0,27,-99.99,,,-99.99,,2013-05-15 10:52:00,
2013-05-15 05:10:00,66.0,31.0,30.00,West,263,14.0,21.0,27,-99.99,,,-99.99,,2013-05-15 11:10:00,
2013-05-15 05:26:00,66.0,30.0,30.00,WSW,245,15.0,21.0,26,-99.99,,,-99.99,,2013-05-15 11:26:00,
2013-05-15 05:36:00,66.0,30.0,30.00,WSW,245,15.0,21.0,26,-99.99,,,-99.99,,2013-05-15 11:36:00,
2013-05-15 05:55:00,66.0,31.0,30.01,SW,236,10.0,15.0,26,-99.99,,,-99.99,,2013-05-15 11:55:00,
2013-05-15 06:07:00,64.0,30.0,30.00,SW,230,9.0,15.0,27,-99.99,,,-99.99,,2013-05-15 12:07:00,
2013-05-15 06:28:00,66.0,30.0,30.01,WSW,253,9.0,15.0,26,-99.99,,,-99.99,,2013-05-15 12:28:00,
2013-05-15 06:35:00,66.0,30.0,30.01,WSW,253,9.0,15.0,26,-99.99,,,-99.99,,2013-05-15 12:35:00,
2013-05-15 06:47:00,65.0,29.0,30.02,WSW,254,9.0,15.0,26,-99.99,,,-99.99,,2013-05-15 12:47:00,
2013-05-15 06:57:00,65.0,31.0,30.03,SW,231,6.0,11.0,27,-99.99,,,-99.99,,2013-05-15 12:57:00,
2013-05-15 07:24:00,65.0,32.0,30.04,South,170,2.0,5.0,28,-99.99,,,-99.99,,2013-05-15 13:24:00,
2013-05-15 07:35:00,65.0,32.0,30.04,South,170,2.0,5.0,28,-99.99,,,-99.99,,2013-05-15 13:35:00,
2013-05-15 07:46:00,64.0,32.0,30.04,WSW,237,4.0,6.0,31,-99.99,,,-99.99,,2013-05-15 13:46:00,
2013-05-15 07:58:00,64.0,32.0,30.04,WSW,237,4.0,6.0,31,-99.99,,,-99.99,,2013-05-15 13:58:00,
2013-05-15 08:05:00,62.0,34.0,30.06,SE,144,5.0,8.0,36,-99.99,,,-99.99,,2013-05-15 14:05:00,
2013-05-15 08:14:00,61.0,36.0,30.06,SSE,166,4.0,6.0,39,-99.99,,,-99.99,,2013-05-15 14:14:00,
2013-05-15 08:25:00,61.0,36.0,30.06,SSE,166,4.0,6.0,39,-99.99,,,-99.99,,2013-05-15 14:25:00,
2013-05-15 08:53:00,67.0,34.0,30.07,WNW,300,5.0,7.0,29,-99.99,,,-99.99,,2013-05-15 14:53:00,
2013-05-15 09:08:00,67.0,32.0,30.06,NW,316,6.0,9.0,26,-99.99,,,-99.99,,2013-05-15 15:08:00,
2013-05-15 09:15:00,68.0,34.0,30.06,NW,316,5.0,7.0,29,-99.99,,,-99.99,,2013-05-15 15:15:00,
2013-05-15 09:27:00,68.0,34.0,30.06,NW,316,5.0,7.0,29,-99.99,,,-99.99,,2013-05-15 15:27:00,
2013-05-15 09:36:00,68.0,34.0,30.06,NW,316,5.0,7.0,29,-99.99,,,-99.99,,2013-05-15 15:36:00,
2013-05-15 09:47:00,68.0,34.0,30.06,NW,316,5.0,7.0,29,-99.99,,,-99.99,,2013-05-15 15:47:00,
2013-05-15 09:56:00,71.0,34.0,30.06,NNW,328,6.0,11.0,25,-99.99,,,-99.99,,2013-05-15 15:56:00,
2013-05-15 10:10:00,71.0,32.0,30.06,North,5,6.0,10.0,23,-99.99,,,-99.99,,2013-05-15 16:10:00,
2013-05-15 10:21:00,71.0,32.0,30.06,North,1,7.0,13.0,24,-99.99,,,-99.99,,2013-05-15 16:21:00,
2013-05-15 10:27:00,70.0,33.0,30.06,North,355,9.0,15.0,25,-99.99,,,-99.99,,2013-05-15 16:27:00,
2013-05-15 10:35:00,70.0,33.0,30.06,North,355,9.0,15.0,25,-99.99,,,-99.99,,2013-05-15 16:35:00,
2013-05-15 10:47:00,71.0,33.0,30.06,NNE,16,9.0,15.0,24,-99.99,,,-99.99,,2013-05-15 16:47:00,
2013-05-15 10:53:00,71.0,33.0,30.07,North,356,12.0,19.0,24,-99.99,,,-99.99,,2013-05-15 16:53:00,
2013-05-15 11:08:00,72.0,33.0,30.07,North,353,10.0,15.0,24,-99.99,,,-99.99,,2013-05-15 17:08:00,
2013-05-15 11:18:00,72.0,33.0,30.07,North,353,10.0,15.0,24,-99.99,,,-99.99,,2013-05-15 17:18:00,
2013-05-15 11:26:00,71.0,32.0,30.07,NNW,341,11.0,17.0,24,-99.99,,,-99.99,,2013-05-15 17:26:00,
2013-05-15 11:36:00,71.0,32.0,30.07,NNW,341,11.0,17.0,24,-99.99,,,-99.99,,2013-05-15 17:36:00,
2013-05-15 11:45:00,71.0,32.0,30.06,NNW,337,11.0,16.0,24,-99.99,,,-99.99,,2013-05-15 17:45:00,
2013-05-15 11:59:00,71.0,32.0,30.06,North,353,7.0,14.0,24,-99.99,,,-99.99,,2013-05-15 17:59:00,
2013-05-15 12:05:00,72.0,33.0,30.05,North,11,8.0,13.0,24,-99.99,,,-99.99,,2013-05-15 18:05:00,
2013-05-15 12:26:00,71.0,34.0,30.05,NNW,337,10.0,17.0,25,-99.99,,,-99.99,,2013-05-15 18:26:00,
2013-05-15 12:36:00,71.0,34.0,30.05,NNW,337,10.0,17.0,25,-99.99,,,-99.99,,2013-05-15 18:36:00,
2013-05-15 12:46:00,71.0,33.0,30.04,NNW,343,10.0,16.0,25,-99.99,,,-99.99,,2013-05-15 18:46:00,
2013-05-15 12:54:00,71.0,34.0,30.04,North,10,10.0,17.0,25,-99.99,,,-99.99,,2013-05-15 18:54:00,
2013-05-15 13:07:00,71.0,35.0,30.04,NNE,18,11.0,18.0,27,-99.99,,,-99.99,,2013-05-15 19:07:00,
2013-05-15 13:15:00,72.0,35.0,30.03,North,2,10.0,17.0,26,-99.99,,,-99.99,,2013-05-15 19:15:00,
2013-05-15 13:28:00,72.0,37.0,30.03,North,353,12.0,20.0,28,-99.99,,,-99.99,,2013-05-15 19:28:00,
2013-05-15 13:37:00,72.0,37.0,30.03,North,353,12.0,20.0,28,-99.99,,,-99.99,,2013-05-15 19:37:00,
2013-05-15 13:44:00,72.0,37.0,30.02,North,7,9.0,19.0,28,-99.99,,,-99.99,,2013-05-15 19:44:00,
2013-05-15 13:54:00,72.0,38.0,30.02,North,7,7.0,14.0,28,-99.99,,,-99.99,,2013-05-15 19:54:00,
2013-05-15 14:07:00,72.0,36.0,30.01,NNE,26,13.0,20.0,27,-99.99,,,-99.99,,2013-05-15 20:07:00,
2013-05-15 14:17:00,72.0,37.0,30.01,NNW,347,14.0,24.0,28,-99.99,,,-99.99,,2013-05-15 20:17:00,
2013-05-15 14:26:00,72.0,38.0,30.01,North,8,13.0,21.0,28,-99.99,,,-99.99,,2013-05-15 20:26:00,
2013-05-15 14:37:00,72.0,38.0,30.01,North,8,13.0,21.0,28,-99.99,,,-99.99,,2013-05-15 20:37:00,
2013-05-15 14:46:00,72.0,38.0,30.01,North,8,13.0,21.0,28,-99.99,,,-99.99,,2013-05-15 20:46:00,
2013-05-15 14:53:00,73.0,36.0,30.00,North,6,13.0,22.0,26,-99.99,,,-99.99,,2013-05-15 20:53:00,
2013-05-15 15:07:00,72.0,35.0,30.00,North,3,14.0,21.0,26,-99.99,,,-99.99,,2013-05-15 21:07:00,
2013-05-15 15:19:00,72.0,34.0,30.00,NNW,339,11.0,19.0,25,-99.99,,,-99.99,,2013-05-15 21:19:00,
2013-05-15 15:27:00,71.0,34.0,30.00,North,352,14.0,24.0,26,-99.99,,,-99.99,,2013-05-15 21:27:00,
2013-05-15 15:49:00,71.0,34.0,30.00,North,352,14.0,24.0,26,-99.99,,,-99.99,,2013-05-15 21:49:00,
2013-05-15 15:56:00,71.0,32.0,30.00,NNW,347,12.0,20.0,24,-99.99,,,-99.99,,2013-05-15 21:56:00,
2013-05-15 16:08:00,71.0,33.0,29.99,NNW,335,8.0,13.0,25,-99.99,,,-99.99,,2013-05-15 22:08:00,
2013-05-15 16:28:00,70.0,34.0,29.99,NW,320,9.0,13.0,26,-99.99,,,-99.99,,2013-05-15 22:28:00,
2013-05-15 16:38:00,70.0,34.0,29.99,NW,320,9.0,13.0,26,-99.99,,,-99.99,,2013-05-15 22:38:00,
2013-05-15 16:47:00,70.0,33.0,29.97,NW,320,15.0,28.0,25,-99.99,,,-99.99,,2013-05-15 22:47:00,
2013-05-15 16:54:00,70.0,34.0,29.98,NW,318,15.0,23.0,26,-99.99,,,-99.99,,2013-05-15 22:54:00,
2013-05-15 17:07:00,70.0,34.0,29.98,NW,318,15.0,23.0,26,-99.99,,,-99.99,,2013-05-15 23:07:00,
2013-05-15 17:15:00,70.0,34.0,30.02,ENE,77,8.0,18.0,26,-99.99,,,-99.99,,2013-05-15 23:15:00,
2013-05-15 17:27:00,66.0,41.0,30.03,SSE,157,18.0,33.0,39,-99.99,,,-99.99,,2013-05-15 23:27:00,
2013-05-15 17:38:00,66.0,41.0,30.03,SSE,157,18.0,33.0,39,-99.99,,,-99.99,,2013-05-15 23:38:00,
2013-05-15 17:48:00,64.0,38.0,30.03,SSW,207,8.0,15.0,39,-99.99,,,-99.99,,2013-05-15 23:48:00,
2013-05-15 17:54:00,64.0,38.0,30.04,SSW,204,10.0,29.0,38,-99.99,,,-99.99,,2013-05-15 23:54:00,
2013-05-15 18:05:00,63.0,42.0,30.04,SSE,161,21.0,31.0,47,-99.99,,,-99.99,,2013-05-16 00:05:00,
2013-05-15 18:25:00,60.0,44.0,30.04,SSE,156,20.0,26.0,55,-99.99,,,-99.99,,2013-05-16 00:25:00,
2013-05-15 18:35:00,60.0,44.0,30.04,SSE,156,20.0,26.0,55,-99.99,,,-99.99,,2013-05-16 00:35:00,
2013-05-15 18:48:00,60.0,44.0,30.04,SSE,156,20.0,26.0,55,-99.99,,,-99.99,,2013-05-16 00:48:00,
2013-05-15 18:54:00,59.0,45.0,30.04,SSE,154,12.0,18.0,61,-99.99,,,-99.99,,2013-05-16 00:54:00,
2013-05-15 19:06:00,59.0,45.0,30.03,South,169,10.0,15.0,58,-99.99,,,-99.99,,2013-05-16 01:06:00,
2013-05-15 19:28:00,61.0,44.0,30.04,West,259,1.0,3.0,54,-99.99,,,-99.99,,2013-05-16 01:28:00,
2013-05-15 19:35:00,60.0,43.0,30.03,WNW,291,3.0,5.0,53,-99.99,,,-99.99,,2013-05-16 01:35:00,
2013-05-15 19:48:00,60.0,42.0,30.03,West,260,5.0,6.0,50,-99.99,,,-99.99,,2013-05-16 01:48:00,
2013-05-15 20:00:00,61.0,42.0,30.04,North,353,8.0,12.0,50,-99.99,,,-99.99,,2013-05-16 02:00:00,
2013-05-15 20:07:00,60.0,42.0,30.04,NNW,327,6.0,9.0,52,-99.99,,,-99.99,,2013-05-16 02:07:00,
2013-05-15 20:15:00,59.0,43.0,30.04,NW,321,9.0,12.0,54,-99.99,,,-99.99,,2013-05-16 02:15:00,
2013-05-15 20:26:00,59.0,42.0,30.04,NNW,327,6.0,8.0,53,-99.99,,,-99.99,,2013-05-16 02:26:00,
2013-05-15 20:36:00,59.0,42.0,30.04,NNW,327,6.0,8.0,53,-99.99,,,-99.99,,2013-05-16 02:36:00,
2013-05-15 20:46:00,59.0,42.0,30.04,NNW,327,6.0,8.0,53,-99.99,,,-99.99,,2013-05-16 02:46:00,
2013-05-15 20:53:00,59.0,42.0,30.04,NNW,327,6.0,8.0,53,-99.99,,,-99.99,,2013-05-16 02:53:00,
2013-05-15 21:07:00,59.0,44.0,30.05,South,179,12.0,17.0,56,-99.99,,,-99.99,,2013-05-16 03:07:00,
2013-05-15 21:16:00,59.0,44.0,30.05,South,179,12.0,17.0,56,-99.99,,,-99.99,,2013-05-16 03:16:00,
2013-05-15 21:25:00,59.0,44.0,30.05,South,179,12.0,17.0,56,-99.99,,,-99.99,,2013-05-16 03:25:00,
2013-05-15 21:36:00,59.0,44.0,30.05,South,179,12.0,17.0,56,-99.99,,,-99.99,,2013-05-16 03:36:00,
2013-05-15 21:45:00,59.0,44.0,30.07,ESE,112,2.0,4.0,58,-99.99,,,-99.99,,2013-05-16 03:45:00,
2013-05-15 21:56:00,59.0,44.0,30.06,SE,141,3.0,5.0,58,-99.99,,,-99.99,,2013-05-16 03:56:00,
2013-05-15 22:02:00,59.0,44.0,30.06,SE,141,3.0,5.0,58,-99.99,,,-99.99,,2013-05-16 04:02:00,
2013-05-15 22:12:00,57.0,44.0,30.07,NW,315,7.0,9.0,62,-99.99,,,-99.99,,2013-05-16 04:12:00,
2013-05-15 22:23:00,58.0,44.0,30.07,SW,221,3.0,8.0,61,-99.99,,,-99.99,,2013-05-16 04:23:00,
2013-05-15 22:33:00,58.0,43.0,30.06,SSW,209,3.0,7.0,57,-99.99,,,-99.99,,2013-05-16 04:33:00,
2013-05-15 22:42:00,57.0,45.0,30.05,NW,307,3.0,5.0,65,-99.99,,,-99.99,,2013-05-16 04:42:00,
2013-05-15 22:52:00,57.0,44.0,30.05,NE,44,2.0,6.0,63,-99.99,,,-99.99,,2013-05-16 04:52:00,
2013-05-15 23:02:00,57.0,44.0,30.05,NE,44,2.0,6.0,63,-99.99,,,-99.99,,2013-05-16 05:02:00,
2013-05-15 23:12:00,56.0,45.0,30.05,North,7,3.0,4.0,65,-99.99,,,-99.99,,2013-05-16 05:12:00,
2013-05-15 23:22:00,57.0,44.0,30.04,NNW,346,3.0,5.0,64,-99.99,,,-99.99,,2013-05-16 05:22:00,
2013-05-15 23:32:00,57.0,44.0,30.04,NNW,346,3.0,5.0,64,-99.99,,,-99.99,,2013-05-16 05:32:00,
2013-05-15 23:42:00,57.0,44.0,30.03,SW,222,3.0,5.0,62,-99.99,,,-99.99,,2013-05-16 05:42:00,
2013-05-15 23:52:00,57.0,44.0,30.03,SW,222,3.0,5.0,62,-99.99,,,-99.99,,2013-05-16 05:52:00,